Wind_Speed
15 15 15 15 15 15 15 15 14 14 14 14 14 14 15 15 15 15 14 14 14 13 13 13 12 12 11 11 10 9 9 8 9 9 9 9 9 9 9 9 9 9 8
16 16 15 15 15 15 15 15 15 15 15 15 15 15 16 16 16 16 16 15 15 15 15 14 14 13 13 12 12 11 11 10 10 11 10 10 11 11 10 10 10 10 9
17 16 16 16 16 16 16 16 16 16 16 16 16 16 17 17 17 17 16 16 16 16 16 16 15 15 14 14 13 13 13 12 12 12 11 11 11 12 12 11 10 10 10
18 18 18 17 17 16 16 16 16 16 16 16 17 17 17 18 18 17 18 18 17 17 17 16 16 16 15 15 14 14 14 14 13 13 12 12 12 12 12 12 12 11 11
19 19 18 18 18 18 17 17 17 17 17 17 17 18 18 18 18 18 18 18 18 18 17 17 17 17 17 16 16 15 15 16 15 15 14 14 13 13 13 13 13 13 13
21 20 20 19 19 19 18 18 18 18 18 18 18 19 19 19 19 19 19 18 18 18 18 18 18 18 18 17 17 17 17 17 16 17 16 16 15 15 15 15 15 15 15
21 21 20 20 20 20 20 19 19 19 19 19 19 19 19 20 20 19 18 19 19 19 19 19 19 19 19 19 19 19 18 18 17 17 17 18 17 17 16 17 17 16 17
23 22 21 20 20 20 20 20 20 20 19 20 19 19 20 20 19 19 19 20 20 20 20 20 20 20 19 19 19 19 19 19 19 19 18 19 18 18 18 18 18 18 18
24 23 22 22 21 20 21 20 20 20 21 21 20 20 20 21 21 21 21 21 21 21 21 21 21 21 20 20 20 19 19 20 19 19 19 20 19 19 19 18 18 18 18
25 24 24 23 22 21 21 21 21 21 21 21 21 21 21 21 21 21 22 22 22 22 23 22 22 22 21 21 21 21 21 21 20 20 21 21 21 21 20 20 20 19 19
26 26 25 24 23 23 23 22 22 23 22 22 22 22 21 21 21 21 22 22 23 23 24 24 24 24 23 23 23 23 22 22 21 21 22 22 22 22 22 21 21 21 21
27 27 26 25 25 25 25 24 24 24 24 23 23 23 23 22 22 22 23 23 23 23 24 25 25 25 24 25 25 24 23 23 22 22 22 22 22 22 23 23 23 23 23
28 28 27 27 26 26 26 26 25 25 25 24 24 24 24 24 24 24 24 24 24 24 24 25 26 26 26 26 26 26 25 24 24 24 24 24 23 24 23 23 25 26 26
29 29 29 28 28 27 27 27 26 26 26 25 25 25 25 25 25 25 26 25 25 25 25 25 26 26 27 27 27 27 27 26 26 26 26 26 25 26 26 26 25 27 28
30 30 30 29 29 28 28 28 28 28 27 27 27 27 27 27 27 27 27 27 26 25 26 26 27 27 27 27 28 28 28 28 28 28 28 28 28 28 28 28 28 28 29
31 31 30 30 30 29 29 29 30 29 29 29 29 28 29 28 28 28 28 28 27 27 27 27 28 28 28 29 29 30 30 30 30 30 30 30 30 30 30 30 30 31 30
33 31 31 31 31 31 30 31 31 31 30 30 30 30 30 29 29 30 30 29 29 28 28 28 28 29 30 30 31 31 31 32 32 32 32 32 32 32 32 32 33 33 33
33 33 33 32 32 32 32 32 32 31 31 31 31 31 31 30 30 30 30 30 29 29 29 29 29 30 30 31 32 32 33 33 34 34 34 35 35 35 34 34 35 35 35
34 34 34 33 33 33 34 33 33 32 32 32 31 31 31 31 31 31 31 30 31 30 30 30 30 30 31 32 32 34 34 35 35 36 36 36 37 37 37 37 37 37 37
35 35 35 34 34 34 34 34 34 33 32 32 32 32 32 32 32 32 32 32 32 32 32 32 31 32 32 33 34 34 36 37 37 38 37 38 38 39 39 39 39 39 40
36 36 36 36 34 35 35 35 34 33 32 32 32 32 32 32 33 32 32 33 33 33 33 34 34 34 34 35 36 36 37 37 38 38 39 40 40 40 41 42 41 42 42
37 37 37 36 36 35 35 35 34 33 33 33 33 33 33 33 33 33 33 33 34 34 35 35 36 36 36 36 37 37 37 38 39 39 40 40 41 41 42 43 43 43 43
37 37 37 37 37 36 34 34 34 34 34 33 33 34 34 34 34 34 35 35 36 36 36 36 37 38 38 38 39 39 39 39 39 40 41 42 43 42 43 43 45 45 45
37 37 37 37 37 37 36 35 35 36 36 35 35 35 35 35 36 35 35 36 36 36 37 37 38 38 39 40 40 40 41 41 41 42 43 43 44 44 44 45 46 46 46
36 36 36 37 38 38 38 37 36 36 37 36 36 36 36 36 37 37 37 37 37 37 38 38 39 40 40 40 41 42 42 43 43 43 44 45 45 45 45 46 46 46 47
36 36 37 37 38 38 38 39 38 37 37 37 37 37 37 38 38 39 39 38 38 38 39 40 40 41 41 41 42 43 43 44 44 45 46 46 46 46 45 46 46 46 47
Wind_Direction
258 257 255 254 254 251 249 249 250 250 249 249 248 247 249 249 249 248 247 247 246 246 246 247 247 248 247 245 243 242 243 245 242 235 233 231 231 232 233 233 230 231 233
258 257 254 252 253 252 250 250 250 251 249 248 247 247 249 251 250 249 248 248 248 248 247 248 248 247 247 246 244 244 245 245 246 242 237 235 236 237 238 238 237 236 235
257 256 254 252 252 252 251 251 250 251 250 250 249 249 250 251 251 249 248 248 248 248 248 249 249 248 247 245 244 244 245 244 246 244 241 240 240 239 237 237 238 238 238
256 256 254 252 252 252 252 251 252 251 251 251 251 251 252 252 250 250 249 247 247 248 249 249 249 249 248 247 245 244 245 245 245 243 243 243 243 243 240 236 239 240 240
255 255 253 251 251 252 252 252 252 251 252 254 253 254 255 255 253 252 252 249 248 249 248 248 248 249 249 249 248 246 246 247 246 245 244 245 244 245 246 242 241 242 243
255 254 254 253 252 252 253 254 253 252 253 255 255 254 255 256 256 255 254 252 251 249 247 246 247 248 249 250 249 247 246 246 248 247 246 247 247 249 249 248 247 246 246
255 254 254 253 252 252 253 253 253 252 253 254 255 254 254 255 255 254 254 252 251 251 250 247 247 248 249 250 250 247 247 249 249 249 248 247 246 248 250 250 249 248 247
255 255 255 253 253 253 253 252 251 252 252 253 253 255 255 256 256 255 255 253 252 252 252 251 249 248 248 250 251 252 251 250 249 250 250 250 248 248 249 250 250 250 249
254 254 254 253 253 254 254 253 253 254 253 254 255 256 256 258 258 256 255 255 253 252 252 250 249 248 249 250 250 252 253 251 250 250 251 252 250 248 248 249 251 251 251
252 253 253 253 253 253 254 255 255 256 255 255 257 258 259 258 259 258 257 255 253 251 251 251 250 249 249 249 250 251 253 253 253 250 249 251 252 252 249 249 249 250 250
251 250 251 253 254 254 255 256 256 256 256 256 256 257 257 259 258 258 258 257 255 252 251 251 251 251 250 250 251 252 253 254 254 254 253 251 251 252 252 250 251 250 249
250 250 250 251 253 254 255 256 255 255 255 255 255 256 258 259 259 259 259 258 257 255 252 252 252 252 252 252 254 254 254 254 255 256 255 253 253 253 252 251 252 251 250
249 249 249 251 254 255 255 254 254 254 255 256 256 257 259 259 259 259 261 260 259 257 254 252 252 253 253 253 254 255 254 255 257 257 257 255 254 254 254 254 254 253 251
249 250 250 251 253 253 253 253 253 253 254 255 257 258 259 260 260 259 259 259 259 258 256 254 252 252 253 254 255 256 256 256 256 256 258 258 257 256 256 256 257 256 254
248 250 251 251 252 252 252 253 254 254 254 255 257 258 259 260 260 260 259 259 259 258 258 257 255 254 254 255 256 257 258 257 257 257 258 259 259 258 258 258 258 260 258
248 250 250 250 251 252 252 252 253 254 255 256 258 258 259 259 260 259 258 258 259 259 258 258 257 256 255 256 257 258 258 258 257 258 259 260 261 260 259 259 260 260 261
248 249 248 248 250 252 251 252 254 254 256 257 258 258 259 260 260 259 259 260 260 260 260 259 259 259 258 258 258 259 259 259 259 259 259 260 261 261 259 259 260 260 261
248 249 247 248 250 252 253 253 254 255 255 257 258 258 259 260 259 259 259 260 261 261 261 261 261 261 261 260 260 260 261 261 260 260 261 261 261 262 261 261 260 261 261
248 249 248 249 251 252 253 254 254 255 255 256 257 258 259 259 259 259 260 260 261 261 261 261 261 262 262 262 262 262 261 261 261 262 262 262 261 261 262 261 261 261 261
246 248 248 249 251 252 253 253 254 254 255 256 257 258 258 258 259 260 261 261 261 261 261 262 262 262 262 263 264 263 263 263 263 262 262 262 262 262 262 262 262 261 261
247 248 249 249 251 253 253 253 255 254 255 256 258 258 259 259 259 260 260 261 262 262 262 262 263 263 264 265 265 265 265 266 265 264 263 263 263 263 263 262 262 262 261
247 248 248 249 250 251 253 252 253 252 253 256 257 260 260 260 260 261 261 262 263 263 263 264 264 264 266 266 267 267 267 268 267 265 264 264 264 265 264 264 264 264 263
246 247 248 248 249 250 252 252 251 252 253 255 259 261 261 261 260 261 262 263 264 264 265 265 266 266 266 267 268 268 269 269 268 267 267 266 266 266 266 266 266 265 264
246 248 248 248 248 249 250 252 252 252 254 256 258 261 261 261 261 262 264 264 265 266 267 267 267 268 267 268 269 269 270 270 269 268 268 268 267 267 267 267 267 266 264
247 247 248 248 248 249 250 252 253 253 254 256 257 260 260 261 262 264 265 266 267 268 268 268 269 269 268 268 269 270 270 271 270 269 270 270 268 268 268 268 266 264 263
248 247 248 248 249 250 251 251 253 254 254 255 257 259 262 262 263 264 266 267 269 269 268 268 269 270 269 269 270 270 271 271 271 270 270 270 270 268 267 267 265 264 263
Height
5818 5819 5819 5820 5820 5821 5822 5823 5824 5824 5825 5826 5826 5827 5827 5828 5829 5829 5830 5830 5831 5831 5832 5832 5833 5833 5834 5835 5835 5836 5836 5836 5837 5837 5838 5838 5839 5840 5840 5841 5841 5842 5842
5815 5816 5817 5817 5818 5818 5819 5820 5821 5822 5823 5823 5824 5824 5825 5826 5826 5827 5827 5828 5829 5829 5830 5830 5831 5831 5832 5833 5833 5834 5834 5835 5835 5836 5836 5837 5838 5838 5839 5839 5840 5841 5841
5812 5813 5814 5814 5815 5816 5817 5818 5818 5819 5820 5821 5821 5822 5822 5823 5823 5824 5825 5825 5826 5826 5827 5828 5828 5829 5830 5830 5831 5832 5832 5833 5834 5834 5835 5835 5836 5836 5837 5838 5838 5839 5839
5809 5810 5810 5811 5812 5813 5814 5815 5816 5816 5817 5818 5819 5819 5820 5820 5821 5821 5822 5822 5823 5824 5825 5825 5826 5827 5827 5828 5829 5830 5830 5831 5832 5832 5833 5833 5834 5834 5835 5836 5836 5837 5837
5805 5806 5807 5808 5809 5810 5811 5812 5812 5813 5814 5815 5815 5816 5817 5817 5818 5818 5819 5819 5820 5821 5822 5822 5823 5824 5825 5825 5826 5827 5828 5828 5829 5830 5831 5831 5832 5833 5833 5834 5834 5835 5835
5801 5802 5803 5804 5805 5806 5807 5808 5809 5810 5811 5811 5812 5813 5813 5814 5814 5815 5815 5816 5817 5818 5818 5819 5820 5821 5822 5822 5823 5824 5825 5825 5826 5827 5828 5829 5829 5830 5830 5831 5832 5832 5833
5797 5798 5799 5800 5801 5802 5803 5805 5806 5806 5807 5808 5808 5809 5809 5810 5811 5811 5812 5813 5813 5814 5815 5816 5816 5817 5818 5819 5820 5821 5821 5822 5823 5824 5825 5825 5826 5827 5827 5828 5829 5829 5830
5792 5793 5795 5796 5797 5798 5799 5800 5802 5803 5803 5804 5805 5805 5806 5806 5807 5808 5808 5809 5810 5810 5811 5812 5813 5814 5815 5816 5816 5817 5818 5819 5820 5820 5821 5822 5822 5823 5824 5824 5825 5826 5827
5787 5789 5790 5792 5793 5794 5795 5796 5797 5798 5799 5800 5801 5801 5802 5802 5803 5804 5804 5805 5806 5806 5807 5808 5809 5810 5811 5812 5812 5813 5814 5815 5816 5817 5817 5818 5818 5819 5820 5821 5821 5822 5823
5782 5784 5785 5787 5788 5790 5791 5792 5793 5794 5795 5796 5796 5797 5798 5798 5798 5799 5800 5801 5801 5802 5803 5803 5804 5805 5806 5807 5808 5809 5810 5811 5812 5813 5813 5814 5815 5815 5816 5817 5817 5818 5819
5777 5779 5780 5782 5783 5785 5786 5787 5788 5789 5790 5791 5792 5792 5793 5794 5794 5795 5795 5796 5796 5797 5798 5799 5800 5801 5802 5803 5804 5805 5806 5807 5807 5808 5809 5810 5810 5811 5811 5812 5813 5813 5814
5771 5773 5775 5777 5778 5779 5781 5782 5783 5784 5785 5786 5787 5787 5788 5789 5789 5790 5790 5791 5791 5792 5793 5794 5795 5796 5797 5798 5799 5800 5801 5802 5803 5803 5804 5805 5806 5806 5807 5807 5808 5809 5809
5765 5767 5769 5770 5772 5774 5775 5776 5777 5778 5779 5780 5781 5782 5783 5783 5784 5784 5785 5785 5786 5787 5787 5788 5789 5790 5791 5792 5793 5794 5795 5796 5797 5798 5799 5800 5801 5801 5802 5802 5803 5804 5804
5759 5761 5763 5764 5766 5767 5769 5770 5771 5773 5774 5775 5775 5776 5777 5777 5778 5779 5779 5779 5780 5781 5781 5782 5783 5784 5785 5786 5787 5788 5789 5791 5792 5793 5794 5794 5795 5796 5796 5797 5797 5798 5799
5752 5754 5756 5758 5760 5761 5763 5764 5765 5766 5767 5768 5769 5770 5771 5771 5772 5772 5773 5773 5774 5774 5775 5776 5777 5778 5779 5780 5781 5782 5783 5784 5785 5786 5787 5788 5789 5789 5790 5791 5791 5792 5793
5745 5747 5749 5751 5753 5754 5756 5757 5758 5759 5760 5762 5762 5763 5764 5764 5765 5765 5766 5767 5767 5768 5768 5769 5770 5771 5772 5773 5774 5775 5776 5777 5778 5779 5780 5781 5782 5782 5783 5783 5784 5785 5786
5738 5740 5742 5744 5746 5747 5748 5750 5751 5752 5753 5754 5755 5756 5757 5757 5758 5758 5759 5760 5760 5761 5762 5762 5763 5764 5765 5766 5767 5768 5769 5770 5771 5772 5773 5773 5774 5775 5775 5776 5777 5777 5778
5730 5732 5734 5736 5738 5740 5741 5742 5743 5745 5746 5747 5748 5748 5749 5750 5750 5751 5752 5752 5753 5754 5755 5755 5756 5756 5757 5758 5759 5760 5761 5762 5763 5763 5764 5765 5766 5766 5767 5767 5768 5769 5769
5722 5724 5726 5729 5731 5732 5733 5734 5735 5737 5738 5739 5740 5740 5741 5742 5742 5743 5744 5745 5745 5746 5747 5748 5748 5749 5749 5750 5751 5752 5752 5753 5754 5754 5755 5756 5756 5757 5758 5758 5758 5759 5760
5713 5715 5718 5720 5722 5724 5725 5726 5727 5729 5730 5731 5732 5732 5733 5733 5734 5735 5735 5736 5737 5738 5738 5739 5740 5740 5741 5742 5742 5743 5743 5744 5744 5745 5745 5746 5746 5747 5747 5748 5748 5749 5750
5704 5706 5709 5711 5713 5715 5717 5718 5719 5720 5722 5723 5724 5724 5724 5725 5726 5726 5727 5727 5728 5729 5729 5730 5731 5732 5732 5733 5733 5734 5734 5734 5734 5734 5735 5735 5735 5736 5736 5737 5737 5738 5739
5695 5697 5700 5702 5704 5706 5708 5709 5711 5712 5713 5715 5715 5716 5716 5716 5717 5718 5718 5719 5720 5720 5721 5721 5722 5722 5722 5723 5723 5724 5724 5725 5724 5723 5724 5724 5724 5724 5724 5725 5725 5726 5727
5687 5689 5691 5693 5695 5697 5699 5700 5702 5703 5705 5706 5707 5707 5707 5708 5708 5709 5709 5710 5711 5711 5711 5712 5712 5713 5713 5713 5713 5713 5714 5714 5714 5713 5713 5712 5712 5712 5712 5713 5713 5714 5715
5677 5679 5682 5684 5685 5687 5689 5691 5693 5695 5696 5698 5698 5698 5698 5699 5699 5700 5700 5701 5701 5701 5702 5702 5702 5702 5703 5703 5702 5702 5702 5702 5702 5702 5702 5701 5701 5701 5701 5701 5701 5701 5702
5668 5670 5672 5674 5676 5678 5680 5682 5684 5685 5686 5688 5688 5689 5689 5689 5690 5690 5691 5691 5691 5691 5691 5691 5692 5692 5692 5692 5692 5691 5691 5690 5690 5690 5691 5690 5689 5689 5689 5689 5688 5689 5689
5658 5660 5662 5664 5666 5668 5670 5672 5674 5675 5676 5678 5678 5679 5679 5680 5680 5680 5681 5681 5681 5681 5681 5681 5681 5681 5681 5681 5680 5680 5679 5679 5678 5678 5678 5678 5677 5676 5676 5676 5676 5676 5677